SCP
0 0 0 0 0 0 0 0 0 0 0 0 0 0 0 0 0 0 0 0 0 0 0 0 0 0 1 1 1 1 1 1 1 1 1 1 1 0 0 0 0 0 0
0 0 0 0 0 0 0 0 0 0 0 0 0 0 0 0 0 0 0 0 0 0 0 0 0 0 1 1 1 1 1 1 1 1 1 1 1 1 0 0 0 0 0
0 0 0 0 0 0 0 0 0 0 0 0 0 0 0 0 0 0 0 0 0 0 0 0 0 0 1 1 1 1 1 1 1 1 1 1 1 1 1 1 1 1 1
0 0 0 0 0 0 1 1 1 0 0 0 0 0 0 0 0 0 0 0 0 0 0 0 0 1 1 1 1 1 1 1 1 1 1 1 1 1 1 1 1 1 1
0 0 0 0 0 0 0 1 1 1 1 1 0 0 0 0 0 0 0 0 0 0 0 0 0 1 1 1 1 1 1 1 1 1 1 1 1 1 1 1 1 1 1
0 0 0 0 0 0 0 0 0 1 1 1 1 1 1 1 1 1 1 1 0 0 0 0 1 1 1 1 1 1 1 1 1 1 1 1 1 1 1 1 1 1 1
0 0 0 0 0 0 0 0 0 0 0 1 1 1 1 1 1 1 1 1 0 0 0 0 1 1 1 1 1 1 1 1 1 1 1 1 1 1 1 1 1 1 1
0 0 0 0 0 0 0 0 0 0 0 0 1 1 1 1 1 1 1 1 1 0 0 1 1 1 1 1 1 1 1 1 1 1 1 1 1 1 1 1 1 1 1
0 0 0 0 0 0 0 0 0 0 0 0 0 0 0 1 1 1 1 1 1 1 1 1 1 1 1 1 1 1 1 1 1 1 1 1 1 1 1 2 2 2 2
0 0 0 0 0 0 0 0 0 0 0 0 0 0 0 0 0 1 1 1 1 1 1 1 1 1 1 1 1 1 1 1 1 1 1 1 1 1 1 2 2 2 2
0 0 0 0 0 0 0 0 0 0 0 0 0 0 0 0 0 0 0 1 1 1 1 1 1 1 1 1 1 1 1 1 1 1 1 1 1 1 2 2 2 2 2
0 0 0 0 0 0 0 0 0 0 0 0 0 0 0 0 0 0 0 0 0 1 1 1 1 1 1 1 1 1 1 1 1 1 1 1 1 2 2 2 2 2 2
0 0 0 0 0 0 0 0 0 0 0 0 0 0 0 0 0 0 0 0 0 0 0 0 1 1 1 1 1 1 1 1 1 1 1 1 1 2 2 2 2 2 2
0 0 0 0 0 0 0 -0 0 0 0 0 0 0 0 0 0 0 0 0 0 0 0 0 0 1 1 1 1 2 2 2 1 1 1 1 1 2 2 2 2 2 2
0 0 0 0 0 -0 -0 -0 -0 0 0 0 0 0 0 0 0 0 0 0 0 0 0 0 0 1 1 1 2 2 2 2 1 1 1 1 1 2 2 2 2 2 2
0 0 0 0 -0 -0 -0 -0 -0 -0 0 0 0 0 0 0 0 0 0 0 0 0 0 0 0 1 1 1 2 2 2 2 1 1 1 1 1 1 2 2 3 3 3
0 0 0 0 0 -0 -0 -0 0 0 0 0 -0 0 0 0 0 0 0 0 0 0 0 0 0 1 1 2 2 2 2 2 1 1 1 1 1 1 2 2 3 3 4
0 0 0 0 0 -0 -0 0 0 0 0 0 0 0 0 0 0 0 0 0 0 0 0 0 0 1 1 1 2 2 2 2 1 1 1 1 1 1 2 2 2 3 3
0 0 0 0 0 -0 -0 0 0 0 0 0 0 0 0 0 0 0 0 0 0 0 0 0 0 0 1 1 2 2 2 2 1 1 1 1 1 1 2 2 2 2 2
0 0 0 0 0 0 0 0 0 0 0 0 0 0 0 0 0 0 0 0 0 0 0 0 0 0 0 1 2 3 3 2 1 1 1 1 1 2 2 2 2 2 2
0 0 0 0 0 0 0 0 0 0 0 0 0 0 0 0 0 0 0 0 0 0 0 0 0 0 0 1 1 2 3 2 1 1 1 1 1 2 2 2 2 1 1
0 0 0 0 0 0 0 0 0 0 0 0 0 0 0 0 0 0 0 0 0 0 0 0 0 0 0 0 1 2 2 2 1 1 1 1 1 1 2 2 1 1 1
0 0 0 0 0 0 0 0 0 0 0 0 0 0 0 0 0 0 0 0 0 0 0 0 0 0 0 0 1 1 2 1 1 0 0 0 1 1 1 1 1 0 0
0 0 0 0 0 0 0 0 0 0 0 0 0 0 0 0 0 0 0 0 0 0 0 0 0 0 0 0 0 1 1 1 0 0 0 0 0 0 1 1 0 0 0
0 0 0 0 0 0 0 0 0 0 0 0 0 0 0 0 0 0 0 0 0 0 0 0 0 0 0 0 0 0 0 0 0 0 0 0 0 0 0 0 0 0 0
0 0 0 0 0 0 0 0 0 0 0 0 0 0 0 0 0 0 0 0 0 0 0 0 0 0 0 0 0 0 0 0 0 0 0 0 0 0 0 0 0 0 0
Wind_Speed
6 2 3 1 0 1 1 3 4 4 4 4 4 4 3 3 3 3 3 4 5 6 8 9 9 9 9 10 9 8 7 8 7 8 7 7 8 9 10 10 8 7 12
6 1 2 3 4 5 4 3 4 5 5 6 6 6 6 6 5 6 6 7 7 7 9 10 10 10 10 11 10 8 8 9 9 9 8 7 7 9 10 9 9 8 14
9 5 6 7 8 9 8 6 5 6 7 8 9 9 9 8 8 8 8 9 9 10 10 10 11 11 9 10 11 10 9 10 10 10 9 5 6 9 9 8 11 14 15
14 11 11 12 13 14 14 12 9 8 9 10 10 11 11 11 11 10 10 10 11 12 12 11 11 12 10 9 11 11 11 11 11 11 6 5 5 9 10 12 14 16 17
15 14 15 18 18 17 17 17 16 13 11 11 12 13 13 13 13 13 11 11 12 13 13 14 13 12 11 10 11 12 12 11 12 11 6 6 5 11 14 14 14 15 17
15 14 19 25 24 22 20 19 19 19 18 16 14 14 14 15 15 15 14 13 14 14 15 15 15 14 12 11 11 13 13 12 11 8 6 6 5 12 15 15 14 14 15
13 13 17 27 27 26 25 23 22 21 21 21 20 18 17 16 17 17 16 16 16 16 16 16 16 14 12 12 12 13 14 14 10 7 7 6 7 13 16 17 17 17 17
11 12 13 24 25 26 27 27 26 24 24 23 22 22 21 20 19 19 18 17 18 17 18 18 16 14 13 13 13 13 14 14 12 9 8 7 10 16 18 18 19 19 20
11 11 11 12 16 21 24 26 27 26 26 25 24 24 23 22 21 19 17 18 19 20 19 18 17 15 14 14 14 14 15 16 12 8 8 6 12 20 20 20 20 21 21
10 10 11 11 12 12 12 22 25 26 27 27 25 24 22 19 19 18 17 17 20 21 20 19 19 18 17 15 15 14 16 16 12 9 7 7 15 23 23 22 22 23 23
10 9 9 10 11 11 11 17 17 20 23 23 20 24 20 13 13 13 15 18 21 21 21 21 21 20 17 15 16 16 15 9 10 8 8 11 18 25 25 24 23 24 24
9 9 8 8 9 9 10 9 7 9 11 11 11 13 12 13 12 15 18 18 20 20 21 23 22 20 15 8 11 15 9 11 10 9 9 16 22 26 26 26 25 26 26
4 6 7 7 8 8 6 7 5 5 6 8 10 11 10 9 9 10 10 11 12 13 12 13 14 10 8 7 8 9 10 10 8 8 10 17 23 28 28 27 28 28 29
4 6 7 6 6 7 6 5 5 5 5 6 8 10 8 7 7 8 8 11 11 9 10 9 8 10 10 11 11 12 13 10 9 8 10 18 23 28 29 30 30 31 31
5 6 6 6 6 6 6 5 6 5 6 7 7 8 9 7 7 7 7 7 10 11 12 11 10 11 11 12 12 13 14 14 13 11 9 17 22 26 29 32 33 33 34
4 5 6 5 6 6 6 6 6 6 7 7 7 9 10 7 7 7 7 7 7 9 11 13 14 12 11 10 13 14 15 14 13 13 10 13 20 23 28 32 34 35 36
3 4 5 6 6 7 8 8 7 7 8 8 8 10 11 10 10 8 7 6 6 7 11 13 16 12 11 11 13 14 13 14 13 14 12 9 11 18 25 31 34 36 38
2 4 5 7 7 8 9 9 9 9 10 9 9 10 13 14 13 11 8 7 6 6 7 10 12 13 12 12 12 12 12 12 14 13 11 10 9 10 17 29 33 36 39
3 4 6 6 8 9 9 9 10 9 10 11 11 11 13 16 16 13 11 8 7 6 6 9 10 12 13 13 13 12 12 12 13 12 13 12 11 10 11 20 28 32 37
3 4 5 6 7 8 7 8 8 9 9 9 10 12 16 15 17 15 12 11 8 6 6 6 9 11 13 13 12 13 13 12 11 13 14 12 11 12 12 13 16 20 32
4 5 5 6 7 7 7 8 9 10 10 9 8 12 16 17 17 16 15 13 10 8 8 8 8 12 12 13 12 12 12 13 12 11 11 11 12 12 12 13 11 13 18
3 4 6 6 6 5 5 4 5 8 7 9 7 10 13 16 18 17 17 15 13 10 9 8 7 8 11 10 11 8 11 11 13 12 11 11 12 11 12 13 12 12 13
3 4 5 5 5 5 5 5 7 7 7 6 11 9 9 15 18 18 18 17 15 12 10 8 7 9 12 12 10 11 10 10 9 11 13 12 12 11 11 13 14 13 13
3 4 5 5 5 5 4 5 8 11 13 15 12 12 14 14 16 17 17 17 17 14 12 9 8 7 11 14 12 14 15 5 11 9 12 12 13 12 12 11 14 16 16
4 5 5 6 6 5 4 5 6 8 10 12 13 15 15 13 14 15 16 16 17 15 14 11 8 8 8 12 12 12 16 11 12 11 13 14 11 10 11 12 13 14 17
5 5 6 6 7 5 5 5 7 10 13 16 17 16 14 12 12 15 17 16 16 16 15 12 10 9 9 13 13 13 14 14 15 14 18 19 14 9 11 10 12 14 15
Wind_Direction
321 310 273 200 197 270 239 215 201 194 195 197 200 209 232 256 272 278 281 285 292 296 297 297 297 295 296 287 255 237 213 189 172 155 149 145 146 153 152 145 149 152 150
313 6 358 30 12 345 321 290 249 226 228 235 239 237 238 247 263 276 279 276 275 276 281 285 287 287 287 295 271 234 209 187 175 159 156 155 152 153 153 149 146 153 152
9 28 30 29 22 8 354 333 297 269 259 257 257 255 250 247 252 264 272 274 274 274 272 274 279 281 278 291 277 234 214 196 182 167 164 166 165 159 162 159 150 150 151
29 27 24 20 21 11 0 352 335 305 283 274 269 267 263 258 254 255 261 267 270 273 273 269 269 273 272 282 276 238 220 207 191 173 171 181 177 169 169 166 159 153 152
35 31 27 26 22 15 5 355 349 339 318 296 281 274 270 265 263 261 259 260 265 269 271 270 267 263 263 270 276 246 224 213 197 181 178 185 184 176 170 169 165 159 155
32 30 30 33 30 25 17 7 358 350 342 328 309 290 280 276 274 270 265 262 262 266 268 269 269 263 255 254 268 253 229 213 198 192 184 185 185 184 174 170 166 161 157
29 26 26 30 29 29 27 21 13 5 356 346 335 319 302 288 281 275 270 264 262 264 266 267 269 265 258 249 255 252 231 212 199 201 192 185 190 189 179 174 169 164 159
33 29 28 27 26 25 24 22 19 15 10 3 354 344 330 313 296 282 274 270 266 263 262 265 266 262 259 251 249 246 226 209 206 209 202 190 193 192 185 179 174 169 164
34 31 27 24 23 22 21 18 14 11 9 5 2 357 347 334 316 296 277 268 266 265 262 260 259 256 256 252 248 242 222 207 203 207 210 201 200 197 190 183 178 175 169
33 29 24 21 20 15 15 16 12 10 6 3 360 355 347 340 329 310 289 274 268 265 263 260 255 250 250 250 248 239 221 209 208 203 207 210 206 202 194 186 181 178 173
24 19 19 18 17 11 11 10 8 8 4 3 359 355 350 344 336 325 309 290 277 268 262 261 258 250 245 245 244 236 220 215 210 206 205 210 211 203 195 188 182 180 177
10 5 11 12 13 10 9 5 1 3 357 356 353 352 350 345 338 334 322 307 290 277 267 262 258 252 243 239 240 234 224 213 210 208 208 205 210 203 197 190 185 183 179
3 359 357 2 6 4 360 357 354 353 351 349 348 346 344 342 339 338 331 324 311 293 280 269 262 250 238 228 227 225 219 212 210 209 210 207 208 204 200 194 188 185 181
20 0 351 352 358 354 352 346 345 344 342 342 339 338 338 335 333 334 331 326 321 310 291 270 258 246 237 230 224 221 217 211 208 207 210 207 209 204 202 197 192 186 182
29 359 341 340 355 350 351 345 351 339 334 328 326 326 327 324 320 320 318 318 319 316 308 289 262 249 240 231 224 219 216 212 208 206 209 208 210 207 203 200 195 188 183
22 351 331 339 356 351 354 352 346 340 335 329 323 319 317 311 305 304 305 305 309 313 314 305 283 254 242 231 223 218 215 211 209 208 208 208 211 211 205 202 197 191 185
13 340 336 352 357 357 360 358 354 344 338 331 326 320 315 309 303 296 291 291 296 304 309 308 298 268 244 231 223 217 214 210 206 206 207 206 209 213 208 202 199 193 187
20 345 335 356 360 4 6 2 355 347 341 334 329 323 317 313 305 296 285 278 280 291 297 303 306 292 256 232 222 215 213 209 206 205 205 205 205 207 211 205 199 194 189
21 350 339 346 1 5 5 1 354 346 342 336 331 326 320 314 309 300 287 276 271 275 283 295 301 306 286 245 219 212 209 208 206 202 205 205 205 205 206 208 202 196 190
17 352 339 347 0 3 5 357 351 345 339 334 328 323 321 317 314 308 295 280 267 265 272 279 293 297 299 275 229 208 206 205 202 203 204 204 203 203 203 201 199 200 193
9 349 341 355 360 5 5 358 349 340 332 325 318 322 321 318 317 314 306 296 277 262 258 268 285 290 296 294 250 209 203 203 202 202 201 200 200 198 197 195 194 201 195
345 337 341 352 349 355 357 346 332 321 315 309 308 315 314 315 315 311 307 300 287 270 259 259 275 283 280 292 279 228 192 197 202 201 198 199 197 192 193 190 187 194 183
317 317 331 328 326 330 335 333 331 320 318 320 319 313 309 311 307 302 301 301 294 279 262 252 256 272 278 275 280 275 212 190 174 191 196 194 191 190 190 186 182 179 166
272 287 296 297 300 304 317 336 337 332 322 317 312 308 307 303 300 299 300 303 299 287 270 255 256 255 271 274 277 281 271 216 166 168 185 191 187 189 187 182 179 173 164
256 268 272 279 282 286 311 326 317 307 304 306 305 302 303 300 295 296 299 298 298 293 280 265 253 255 259 265 267 281 289 263 172 159 173 180 184 187 184 180 177 170 165
260 264 264 267 275 300 321 308 293 295 303 306 305 304 303 301 297 293 295 293 293 294 288 277 261 258 260 265 264 262 279 264 198 176 171 178 181 178 176 175 174 168 163